GFSSGP_850_temp_003.txt.gz
Temp
21 21 23 24 27 30 31 32 34 33 32 32 31 31 30 29 29 27 24 24 24 23 20 21 22 21 21 20 20 20 19 19 19 19 19 19 19 18 19 19 18 18 19 18 18 18 18 18 18
20 22 24 27 26 23 31 32 33 33 32 31 31 31 31 28 26 24 23 23 24 22 21 19 22 21 21 20 20 20 19 19 19 19 19 19 18 18 18 19 19 18 19 18 18 18 18 18 18
20 21 27 32 25 28 31 33 33 32 31 31 31 29 29 27 26 25 23 22 23 23 22 20 22 21 20 20 19 19 19 19 19 19 19 19 18 18 18 19 19 18 18 18 18 18 18 18 18
24 26 27 24 26 33 33 33 33 32 31 31 31 29 26 26 26 25 22 23 23 23 23 21 21 21 20 20 19 19 19 19 19 19 19 19 18 18 19 18 19 18 18 18 18 18 18 18 18
25 28 31 33 33 34 34 33 33 33 32 32 31 30 27 24 24 24 22 23 22 23 22 21 21 21 20 19 19 19 19 19 19 19 19 19 19 19 19 18 18 18 18 18 18 18 18 18 18
28 31 25 31 32 34 34 34 33 33 32 31 31 30 27 24 24 23 23 23 23 23 22 20 21 21 20 20 20 20 20 19 19 19 19 19 19 19 19 18 18 18 18 18 18 18 18 18 18
29 33 30 33 33 33 34 33 34 33 32 32 31 31 26 25 23 23 22 23 22 22 21 19 20 20 20 20 20 20 19 19 19 19 19 19 19 18 18 18 18 18 18 18 18 18 18 18 17
29 33 33 34 33 33 34 34 33 33 32 30 30 30 28 25 23 22 20 20 20 21 20 20 19 18 18 20 19 19 19 19 19 19 19 19 19 18 18 18 18 18 18 18 18 18 18 18 17
29 32 33 33 33 34 34 35 33 32 32 30 30 30 28 24 23 22 21 19 19 20 20 19 19 19 18 18 19 19 19 18 18 19 19 19 18 18 18 18 18 18 18 18 18 18 18 18 17
31 33 32 34 34 34 34 34 33 33 33 30 28 27 25 24 23 23 21 20 20 20 20 20 19 18 18 18 18 18 18 18 18 19 20 19 18 19 17 17 19 18 18 18 18 18 18 18 16
32 33 34 34 33 33 34 34 34 34 33 29 30 27 25 24 24 23 23 22 21 20 20 19 20 18 18 19 18 18 18 18 18 18 19 19 18 18 19 17 18 19 18 17 18 18 17 17 17
32 33 33 33 33 33 34 34 34 34 33 32 31 27 26 25 24 24 23 23 23 22 21 20 20 19 19 18 19 17 19 18 18 18 19 19 18 18 18 17 18 18 18 18 17 18 17 17 18
32 33 33 33 33 33 33 34 34 33 32 30 30 28 26 26 25 24 23 23 22 21 20 19 18 18 18 18 20 19 18 18 18 17 18 19 18 19 19 17 19 19 18 18 18 18 18 18 17
33 32 33 33 33 33 33 34 34 32 31 30 29 28 27 27 26 25 23 23 22 21 20 19 19 18 18 18 18 18 19 18 18 17 17 18 18 18 18 17 18 19 19 18 18 18 18 18 18
32 31 33 34 34 33 33 33 26 31 31 30 29 28 28 27 26 25 24 23 22 21 20 19 18 18 17 18 17 17 18 17 17 17 17 17 18 18 18 18 18 19 19 18 17 18 18 17 18
31 32 32 35 34 34 33 29 32 31 31 30 30 29 28 27 26 25 24 23 22 21 20 20 19 18 17 17 17 17 18 18 18 18 17 16 17 17 18 17 18 18 18 19 17 18 17 18 18
33 32 33 34 33 34 33 33 32 32 32 31 30 29 28 27 26 25 24 23 22 21 20 19 19 18 19 17 17 16 17 17 18 18 17 16 16 16 17 16 17 18 17 18 18 17 18 18 18
33 33 33 32 33 34 33 33 34 32 32 32 31 29 29 28 26 25 24 24 23 21 19 18 18 18 18 17 17 17 16 16 17 18 17 16 15 16 16 16 17 17 16 17 17 18 18 18 17
33 32 32 33 33 32 33 33 34 33 32 32 31 30 29 28 28 26 24 24 23 21 19 18 18 17 17 17 17 17 17 17 17 17 17 16 15 16 16 16 17 16 17 17 17 18 17 17 18
31 31 31 33 33 32 32 33 34 33 33 33 32 30 29 28 27 27 25 24 22 21 19 18 18 17 17 17 17 16 16 16 16 16 15 15 15 15 15 16 17 16 16 16 17 17 17 17 17
31 31 32 32 32 33 32 32 32 33 33 32 31 31 30 29 28 27 25 23 22 21 20 19 18 18 18 17 16 16 16 16 16 16 16 15 14 15 15 16 16 17 16 17 17 17 17 17 17
31 32 32 31 31 31 33 30 31 31 33 33 31 30 30 29 28 27 24 22 22 21 21 20 19 18 17 17 16 16 16 16 16 16 15 16 15 15 15 15 16 16 16 16 16 17 17 17 17
31 32 31 31 31 31 32 31 32 33 32 33 33 31 30 29 27 26 23 22 21 22 22 20 19 17 16 16 16 16 16 15 15 15 16 15 15 15 15 16 16 16 16 16 17 17 17 17 17
32 30 30 31 31 30 31 32 32 32 31 32 31 30 29 27 26 24 22 22 22 22 21 20 18 17 16 15 15 15 15 15 14 15 15 15 15 15 15 15 16 16 17 16 17 17 17 17 17
31 30 29 29 29 30 31 31 32 33 31 31 31 29 28 27 25 22 22 22 22 21 20 20 18 18 16 15 15 16 14 15 15 14 15 15 14 15 15 16 16 16 16 17 17 17 16 17 17
30 31 30 28 29 30 31 30 31 32 30 29 29 29 28 27 25 22 22 23 22 20 19 19 18 17 16 15 14 15 15 15 14 15 15 14 14 15 15 16 16 16 16 16 16 16 16 16 16
30 29 32 30 31 31 30 33 31 30 30 29 29 29 28 27 24 23 23 23 21 20 19 19 18 16 16 15 15 15 15 15 15 15 15 15 15 15 15 15 15 15 15 16 16 16 16 16 16
32 32 30 31 28 28 30 31 31 29 29 29 29 28 27 27 24 23 24 22 21 19 18 18 17 16 16 15 15 15 14 15 14 15 14 15 14 14 15 15 15 15 15 15 16 16 16 16 16
31 31 31 32 31 29 29 30 21 26 31 29 29 28 27 26 25 24 23 21 20 19 18 17 18 16 16 15 15 15 15 15 15 15 15 15 14 15 15 14 15 15 15 15 15 15 15 15 16
32 31 31 30 29 31 29 29 30 31 30 30 28 27 27 26 25 22 22 22 21 21 20 19 18 17 17 16 15 15 14 15 15 14 15 15 15 14 14 14 14 14 14 14 14 14 14 14 15

GFSSGP_850_temp_006.txt.gz
Temp
23 23 24 26 25 23 31 33 34 33 32 32 32 31 29 29 28 25 26 25 23 22 23 23 22 21 20 20 20 20 20 19 19 19 19 19 19 19 19 19 18 18 18 18 18 18 18 18 18
21 23 25 21 21 24 31 34 32 32 33 32 31 31 29 28 26 26 24 25 23 22 23 23 22 21 20 20 20 20 19 19 18 18 19 19 18 18 19 18 18 18 18 18 18 18 18 18 18
23 22 22 18 19 25 31 33 33 31 31 30 27 28 29 28 27 25 24 25 24 22 21 23 22 21 20 20 20 20 19 19 18 18 18 18 18 18 19 19 18 18 18 18 18 18 18 18 18
24 27 28 28 27 28 33 34 33 31 30 29 27 26 27 27 27 25 24 25 24 23 21 21 22 21 20 20 20 20 19 19 19 18 19 18 18 18 19 19 19 18 18 18 18 18 18 18 18
26 27 19 19 21 33 35 34 34 31 32 29 22 18 24 26 25 24 24 24 24 23 23 22 22 21 21 20 20 20 19 19 19 19 19 19 19 19 19 19 19 18 18 18 18 18 18 18 18
28 26 24 19 25 33 35 35 35 32 33 26 20 19 19 25 25 24 24 24 23 23 22 22 22 21 21 20 20 20 20 20 20 19 19 19 19 19 19 19 19 19 18 18 18 18 18 17 18
29 23 27 25 23 28 35 33 34 33 31 31 23 20 23 26 25 24 24 24 23 21 21 22 22 21 21 20 20 20 20 20 20 20 19 19 19 19 18 19 19 19 18 18 18 18 18 18 18
30 32 24 26 29 25 32 33 33 33 29 30 27 18 22 25 24 23 23 23 23 21 20 21 20 21 21 20 20 20 20 20 20 20 20 20 20 19 19 19 19 19 18 18 18 18 18 18 18
30 26 19 21 22 32 34 34 33 32 27 24 24 26 26 24 24 22 21 21 21 21 20 21 20 19 19 20 20 20 19 20 20 19 19 20 20 19 18 18 18 18 18 18 18 18 17 18 18
31 24 22 27 30 34 35 35 34 26 20 19 26 24 25 24 24 22 21 21 21 20 20 20 20 19 19 19 19 19 19 19 20 20 19 18 17 18 18 18 19 18 19 18 19 18 18 18 18
32 25 25 26 34 34 35 35 35 25 24 27 25 25 25 25 24 23 22 21 21 21 21 20 20 20 20 18 18 19 18 19 19 19 19 18 18 18 19 18 18 18 18 19 19 18 18 18 17
33 33 29 34 34 34 35 34 35 35 27 29 27 26 26 25 25 24 24 23 22 21 21 21 20 20 19 19 18 18 19 19 20 20 19 19 18 18 18 18 18 18 18 18 18 18 18 17 17
33 34 34 34 34 34 34 34 34 31 30 27 26 26 26 26 25 25 24 23 23 22 22 21 20 19 19 18 18 18 18 19 19 19 19 19 19 19 18 18 18 18 18 18 18 18 18 18 17
34 34 34 34 34 34 35 33 31 31 31 29 28 28 28 27 26 25 24 23 22 22 21 20 20 20 19 19 18 17 18 18 17 17 19 18 18 18 18 18 18 18 18 18 19 18 18 18 18
33 33 34 34 34 35 34 30 28 30 31 31 30 29 29 27 26 25 24 23 22 21 20 19 21 21 21 21 21 20 20 19 18 17 18 18 18 17 18 17 18 18 18 17 18 18 18 18 18
32 33 31 34 33 35 34 30 26 30 28 31 31 30 29 28 26 25 24 23 22 21 21 20 19 20 21 21 21 20 19 18 19 19 18 18 18 18 17 17 18 18 18 18 18 19 18 18 18
32 31 32 23 24 34 34 31 31 29 28 32 31 30 29 28 27 26 24 23 22 22 21 20 20 19 19 19 20 20 19 18 18 18 18 18 18 17 17 17 17 17 18 18 18 18 18 18 17
32 32 27 19 24 34 34 34 32 31 34 33 31 30 30 28 27 26 25 24 23 21 21 20 19 19 18 18 18 18 17 17 17 18 18 18 18 18 17 17 17 16 17 17 18 18 18 18 17
33 33 33 22 32 33 33 33 34 34 32 33 32 27 30 29 28 26 25 25 23 22 20 19 19 18 18 18 18 18 18 17 17 17 18 18 17 17 17 17 17 16 16 17 18 18 18 17 17
33 32 32 33 34 33 33 33 34 25 21 23 28 31 31 29 29 27 26 25 24 22 21 19 19 19 18 18 18 17 17 17 17 17 17 17 16 16 16 17 17 17 17 17 17 18 18 17 18
32 32 32 32 34 34 33 32 32 22 21 28 30 32 31 30 29 28 25 25 24 22 21 20 19 18 18 17 17 17 17 17 17 16 16 17 17 16 16 16 17 16 17 17 17 18 18 18 17
31 33 33 32 32 31 34 31 32 26 26 27 26 32 31 30 29 28 25 24 23 22 22 20 20 18 18 17 17 17 16 16 16 16 16 16 16 16 16 16 16 17 17 17 17 18 18 18 17
32 34 33 32 32 31 32 31 30 31 26 24 25 25 31 30 29 26 24 23 22 22 22 21 20 19 18 17 17 16 16 16 16 15 15 16 16 16 16 16 16 16 17 17 17 17 18 18 17
33 32 32 31 31 29 31 31 30 26 25 24 27 31 30 28 26 24 23 22 22 23 22 21 20 19 17 16 16 16 16 15 16 16 16 16 16 16 16 16 16 16 17 17 17 17 18 17 17
32 31 29 28 29 29 31 32 31 32 29 29 30 30 29 26 24 23 22 23 23 22 21 20 19 18 17 16 16 16 16 15 15 16 15 16 16 16 16 16 16 16 16 17 17 17 17 17 17
31 31 29 28 29 28 28 24 26 32 31 32 31 30 28 25 24 24 23 23 23 21 20 20 18 17 17 16 16 16 15 15 15 15 15 15 15 15 16 16 16 16 16 16 17 17 16 16 17
32 30 32 30 31 30 29 29 30 32 31 31 31 30 29 25 24 22 23 24 22 21 20 20 17 17 16 16 16 16 15 15 15 16 15 15 15 15 16 16 16 16 16 16 17 16 17 17 17
32 33 30 30 27 27 30 30 27 26 24 30 30 30 29 25 23 23 24 23 22 20 19 18 17 17 16 16 16 15 15 15 15 16 16 15 15 15 16 16 16 16 16 16 16 16 16 16 16
31 30 31 31 31 29 29 25 25 22 24 24 30 29 28 25 24 23 23 22 22 20 19 19 18 17 17 17 16 16 16 15 15 15 16 16 15 15 16 15 16 16 15 15 15 16 16 15 15
33 32 31 29 29 30 30 25 25 19 20 22 28 29 28 25 23 23 23 22 21 20 20 19 18 18 18 17 16 16 16 16 15 16 15 15 15 15 15 15 15 15 15 15 15 15 14 14 15

GFSSGP_850_temp_009.txt.gz
Temp
24 23 23 21 22 21 25 30 31 30 29 29 28 27 26 26 25 21 23 23 23 23 22 22 21 21 21 21 20 20 20 19 19 19 19 20 20 20 20 19 19 19 19 19 19 19 19 19 19
24 24 24 23 20 21 27 30 29 30 29 28 28 28 27 25 25 24 22 23 23 24 23 22 21 21 21 21 20 20 20 20 19 19 19 19 19 19 19 19 19 19 19 18 18 18 19 18 18
24 24 25 18 19 22 23 30 30 25 28 28 26 26 24 26 25 24 23 22 23 23 23 22 22 21 21 21 21 20 20 20 20 19 19 19 19 19 19 19 19 19 18 18 18 18 18 18 18
23 23 20 19 20 23 24 26 31 25 22 23 23 23 25 25 25 24 22 23 23 22 22 23 22 21 21 21 21 21 21 20 20 19 19 19 19 19 19 19 19 19 18 18 18 18 18 18 18
23 23 18 19 21 24 27 29 25 22 19 22 24 22 23 24 24 24 23 22 21 21 23 23 23 22 21 21 21 21 21 20 20 19 19 19 19 19 19 19 19 19 18 18 18 18 18 19 18
26 24 21 21 24 25 25 30 23 22 21 21 21 20 23 24 24 24 24 23 23 22 22 22 22 22 21 21 20 20 20 20 20 20 19 19 19 19 19 19 19 18 18 18 18 18 18 19 19
25 21 19 22 24 26 29 32 23 23 24 24 23 21 24 24 24 24 23 23 23 22 22 22 22 22 21 21 21 20 20 20 20 20 20 19 19 19 19 18 18 18 18 18 18 18 18 19 19
28 21 20 21 23 24 28 32 28 25 24 24 25 21 23 24 24 24 23 22 22 21 21 21 22 22 21 21 20 20 20 20 20 20 19 19 19 19 19 19 19 18 18 19 18 18 18 18 19
28 21 20 23 25 25 29 27 26 27 25 25 24 27 25 24 24 23 22 21 21 21 21 21 21 21 21 21 21 20 20 20 20 19 19 19 19 19 18 18 18 18 18 18 18 18 18 18 19
27 20 22 25 26 27 28 29 29 25 26 25 23 25 24 24 23 22 22 21 20 20 20 20 20 21 21 21 20 20 20 20 19 19 19 19 18 18 18 18 18 19 18 18 18 18 18 18 18
29 24 26 28 28 27 27 30 27 26 25 25 24 24 24 23 22 22 22 21 20 20 20 20 20 21 20 19 19 19 19 19 19 19 19 18 18 18 18 18 18 19 18 19 18 18 18 18 18
28 31 30 29 28 28 29 31 27 30 29 29 26 25 24 24 23 22 21 21 21 21 21 21 20 20 19 19 19 19 19 19 19 19 19 19 18 18 18 18 18 18 18 19 18 18 18 17 17
29 31 33 32 32 34 33 31 31 29 29 28 26 25 24 24 23 23 23 22 22 21 21 20 20 20 19 19 19 19 19 19 18 18 18 18 18 18 18 18 18 18 18 18 18 18 18 17 17
31 32 32 33 33 32 31 31 31 28 28 27 25 25 25 25 24 23 23 22 22 21 21 20 20 21 20 20 19 20 20 19 18 19 20 19 18 17 18 18 17 17 17 17 18 18 17 18 17
31 29 30 26 27 30 30 29 28 30 27 26 25 26 26 25 25 24 23 23 22 21 21 21 21 21 21 20 20 20 19 18 18 19 20 19 18 18 17 17 17 18 18 18 18 18 18 18 17
28 28 26 26 28 29 27 27 28 29 28 25 24 27 26 25 25 24 23 23 22 22 22 22 22 22 21 21 20 19 18 18 18 19 18 19 18 17 17 17 18 18 18 18 18 18 18 18 18
27 25 23 23 27 27 27 26 26 30 30 24 24 20 25 26 25 24 24 23 22 22 21 21 21 21 21 20 20 19 19 18 17 17 17 17 17 18 18 18 17 17 18 18 18 18 18 18 18
25 26 22 22 26 28 26 25 24 27 24 24 16 17 22 22 25 25 24 23 22 21 21 20 19 19 19 19 19 19 19 18 18 18 17 17 17 17 17 17 17 17 17 17 17 18 18 17 18
29 29 25 23 26 26 25 27 26 23 23 19 19 17 20 24 23 25 24 23 22 22 21 21 20 19 19 19 18 18 18 18 18 18 17 17 17 16 16 17 17 17 17 17 17 18 18 17 17
29 29 28 28 27 23 26 30 24 25 25 29 18 17 20 21 22 22 18 21 23 22 21 21 20 19 19 18 18 17 17 17 17 17 17 17 16 16 16 17 17 16 16 17 17 17 17 17 17
28 28 28 29 30 28 30 28 25 24 24 25 23 22 22 22 19 22 18 20 20 22 21 21 20 19 19 18 18 17 17 17 17 17 17 17 16 16 16 16 17 16 16 16 17 17 18 17 17
26 30 31 30 29 26 29 23 23 22 23 25 26 30 27 22 23 23 22 22 18 21 22 21 20 19 19 18 17 17 17 16 16 16 16 16 16 16 16 16 16 16 16 16 17 17 17 18 18
28 30 30 30 26 25 26 24 24 23 24 23 23 25 28 26 24 22 22 21 22 22 21 20 19 19 18 18 17 17 17 16 16 16 16 16 16 16 16 16 16 16 16 16 16 17 17 18 18
31 30 27 29 25 22 24 25 22 23 24 24 23 25 26 24 23 23 23 22 22 22 21 20 19 19 18 17 16 16 16 16 16 16 16 16 16 16 16 16 16 16 16 16 16 17 17 17 18
30 27 21 22 22 21 27 25 25 26 27 25 24 24 24 23 23 23 23 22 21 21 20 19 19 19 18 17 16 16 16 16 15 15 15 16 16 16 16 16 16 16 16 16 16 17 17 17 17
27 24 21 23 22 23 25 26 23 18 22 28 27 24 24 24 24 23 23 22 21 21 20 20 19 19 17 16 16 16 16 16 16 15 16 16 16 15 15 16 15 16 16 16 16 17 17 17 16
27 25 25 24 25 23 23 26 23 22 24 27 26 24 23 23 24 23 23 22 22 21 20 19 19 19 17 16 16 16 17 16 15 15 16 16 16 15 16 16 16 16 16 16 16 16 16 16 16
27 28 25 22 23 22 24 22 18 19 22 23 26 24 22 23 23 23 22 22 21 20 20 19 20 19 18 17 17 16 16 16 16 16 15 15 16 16 16 16 16 16 16 16 16 16 16 16 16
27 26 26 23 22 21 21 21 21 20 20 19 21 21 23 23 24 23 22 21 21 20 19 19 19 19 17 17 17 16 16 16 16 16 16 16 16 16 16 16 15 15 15 15 16 16 16 16 16
29 26 24 21 23 22 22 22 20 20 19 20 20 20 20 23 23 22 22 21 21 21 20 19 18 18 17 17 17 17 16 16 16 16 16 16 16 15 16 15 16 16 15 15 15 15 15 15 14

GFSSGP_850_temp_015.txt.gz
Temp
24 23 22 22 22 22 22 23 23 24 24 25 26 25 24 23 24 21 22 23 22 21 21 20 21 21 21 20 20 20 20 20 20 20 20 20 20 20 20 19 19 18 18 18 18 18 18 18 18
24 24 23 23 21 20 21 24 22 23 25 25 25 25 24 22 22 22 22 22 23 22 21 21 21 21 21 20 20 20 20 20 20 20 20 20 20 20 19 19 19 19 18 18 18 18 18 18 18
23 24 24 19 20 20 20 23 23 24 25 24 24 24 23 22 23 24 23 22 22 22 21 21 21 21 20 20 20 20 20 20 20 19 19 19 19 19 19 19 19 19 19 18 18 18 18 18 18
23 23 23 22 21 23 22 23 27 25 24 24 24 23 23 22 24 23 23 22 22 22 21 21 20 20 20 20 20 20 20 20 19 19 19 19 19 19 19 19 19 18 19 18 18 18 18 17 18
23 23 19 20 22 22 23 25 25 25 23 24 23 22 22 22 23 23 22 21 22 22 21 20 20 20 20 20 20 20 20 20 19 19 19 19 19 19 19 19 18 18 18 18 18 18 18 17 17
24 22 19 20 22 25 23 25 23 23 23 24 22 22 22 22 23 23 23 22 21 22 21 20 20 20 20 20 20 20 20 19 19 19 19 19 19 19 19 19 18 18 18 18 18 18 18 18 17
21 19 19 20 22 23 23 23 22 23 23 24 23 21 21 22 22 22 23 21 21 21 21 21 20 20 20 20 20 20 20 19 19 19 19 19 19 19 19 19 19 18 18 18 18 18 18 18 18
24 19 20 21 22 24 24 22 24 23 23 23 24 21 22 22 22 22 21 21 21 21 21 21 20 20 21 20 20 20 20 20 19 19 19 19 19 19 19 19 19 18 18 18 18 18 18 17 17
25 20 21 21 22 24 25 23 24 24 24 23 23 23 23 22 22 21 21 21 21 21 21 20 20 20 20 20 20 20 20 20 20 20 19 19 19 19 19 19 19 19 18 18 18 18 18 18 17
23 20 23 22 24 25 24 24 25 24 23 23 22 23 23 22 22 22 21 21 20 20 20 20 20 21 20 20 20 20 20 20 20 20 20 19 19 18 18 18 18 18 18 18 18 18 18 18 17
23 23 24 26 25 27 25 26 26 24 23 24 22 22 23 22 21 22 21 21 21 20 20 20 20 20 20 20 20 20 20 20 20 20 20 19 19 19 18 18 18 18 19 18 19 18 18 17 17
25 26 27 28 29 27 25 27 25 25 26 27 23 23 22 21 21 21 21 21 21 21 20 20 20 20 20 20 20 20 20 20 20 19 19 19 19 19 18 18 19 18 18 18 18 18 18 18 17
25 27 28 29 29 28 28 26 26 25 26 25 23 22 22 22 21 21 21 21 21 21 21 20 20 20 19 19 19 19 19 19 19 19 19 19 19 19 18 19 19 18 18 18 18 18 18 18 18
27 27 27 27 28 28 27 26 28 24 25 23 22 22 23 23 23 21 20 20 21 20 20 20 20 20 19 19 19 19 19 19 18 18 19 18 18 18 18 18 18 18 18 18 18 18 18 18 18
27 26 24 26 27 26 28 26 26 24 23 22 22 22 23 24 25 24 22 21 21 22 20 20 20 19 19 20 19 19 19 18 18 18 18 18 18 18 18 17 17 17 18 17 18 18 18 18 18
24 23 23 26 26 27 27 24 22 23 22 21 22 22 24 25 24 23 23 22 21 21 21 20 20 21 20 20 19 19 18 19 19 18 18 18 18 17 17 17 17 17 17 17 17 18 18 17 17
20 22 23 23 26 26 25 22 22 23 21 20 22 23 24 25 21 21 24 23 23 21 21 21 20 21 20 20 19 19 19 18 18 18 18 18 18 18 18 17 17 17 17 17 17 17 18 18 17
22 23 23 23 26 26 24 21 21 21 20 20 22 23 24 22 21 21 22 24 23 22 21 21 21 21 21 20 19 18 18 18 18 18 18 17 17 17 17 17 17 17 16 16 16 17 17 17 17
24 23 23 24 25 26 24 22 22 20 20 19 21 23 23 19 18 20 22 23 23 21 21 20 21 21 20 20 19 18 18 18 18 17 17 17 17 17 17 17 17 16 16 17 16 17 17 17 17
23 22 22 23 25 25 23 20 21 18 19 19 21 21 19 20 18 19 22 22 24 20 21 20 20 20 20 19 19 18 17 17 17 17 17 17 16 16 16 17 17 16 16 16 16 16 17 17 17
23 22 23 24 25 24 24 20 19 19 18 19 20 20 19 22 21 19 21 22 22 20 19 19 19 20 19 18 18 18 17 17 17 17 17 17 16 16 17 16 16 16 16 16 16 16 16 17 17
22 23 25 25 25 24 24 22 20 19 17 18 19 19 20 21 20 20 20 20 20 19 18 19 19 19 19 19 17 17 17 16 17 16 16 16 16 16 16 16 16 16 16 16 16 16 16 16 17
23 25 25 26 23 23 24 21 21 18 19 17 19 20 20 21 20 20 21 19 18 19 18 18 19 19 19 18 17 17 16 16 16 16 16 16 16 16 16 16 15 16 16 15 16 16 16 16 16
26 26 21 18 18 21 22 22 21 19 21 19 20 21 22 22 20 20 20 20 20 20 19 19 19 19 19 17 17 17 16 16 16 15 15 15 15 16 16 15 15 16 15 15 15 16 15 16 16
23 20 19 21 19 20 21 21 20 21 21 22 21 23 22 22 20 20 19 21 21 21 20 19 19 19 18 17 17 17 16 16 15 15 16 16 15 15 15 16 16 16 16 15 15 15 15 15 16
23 21 19 21 19 21 20 22 22 21 21 21 22 21 21 20 20 20 21 21 20 20 19 19 19 18 18 17 17 17 16 16 15 16 16 16 16 15 15 15 15 15 15 15 15 15 15 15 16
25 23 21 18 18 20 19 21 22 21 19 18 18 18 21 19 22 24 22 21 21 21 20 19 19 18 18 17 17 17 16 16 16 16 16 16 16 16 16 15 15 15 15 15 15 15 15 16 16
24 22 22 17 21 22 19 21 19 19 18 17 17 17 20 19 19 22 22 22 21 20 19 18 18 18 17 17 17 17 17 16 16 16 16 16 16 16 16 16 16 15 15 15 15 15 15 16 16
24 23 18 17 17 19 19 19 18 18 17 17 17 20 23 22 18 22 22 21 20 19 19 19 19 18 18 17 16 16 16 16 16 16 16 16 15 15 16 16 16 15 15 15 15 15 15 16 16
25 23 20 19 22 17 17 19 18 16 16 18 17 20 22 20 18 21 20 20 20 19 19 19 19 18 17 17 16 16 16 16 15 15 15 15 15 15 15 15 16 15 15 15 15 15 15 16 16